Regional Weather Roundup
Issued by NWS Newport/Morehead, NC

Current Version | Previous Version | Graphics & Text | Print | Product List | Glossary On
Versions: 1 2 3 4 5 6 7 8 9 10 11 12 13 14 15 16 17 18 19 20 21 22 23 24 25 26 27 28 29 30 31 32 33 34 35 36 37 38 39 40 41 42 43 44 45 46 47 48 49 50
000 ASUS42 KMHX 252013 RWRMHX WEATHER ROUNDUP FOR EASTERN NORTH CAROLINA NATIONAL WEATHER SERVICE NEWPORT/MOREHEAD CITY NC 400 PM EDT SAT MAR 25 2017 NOTE: "FAIR" INDICATES FEW OR NO CLOUDS BELOW 12,000 FEET WITH NO SIGNIFICANT WEATHER AND/OR OBSTRUCTIONS TO VISIBILITY NCZ015>017-031-032-045>047-102-103-252100- NORTH COAST CITY SKY/WX TMP DP RH WIND PRES REMARKS EDENTON MOSUNNY 75 51 43 SW8 30.24F ELIZABETH CITY MOSUNNY 74 50 42 SW16 30.22F KITTY HAWK NOT AVBL MANTEO MOSUNNY 65 52 61 S15 30.25F $$ NCZ045>047-081-094-103-104-252100- CENTRAL COAST CITY SKY/WX TMP DP RH WIND PRES REMARKS FRISCO CLOUDY 69 55 60 SW12 30.28F $$ NCZ095-097-098-100-101-252100- SOUTHERN COAST CITY SKY/WX TMP DP RH WIND PRES REMARKS BEAUFORT SUNNY 72 54 53 SW13 30.29F CEDAR ISLAND NOT AVBL JACKSONVILLE PTSUNNY 72 53 51 S16G24 30.26F PINEY ISLAND PTCLDY N/A N/A N/A SW18G29 30.28F WILMINGTON CLOUDY 73 51 46 S9G20 30.27F $$ NCZ011>013-027>030-043-044-078>080-089-090>093-098-252100- COASTAL PLAIN CITY SKY/WX TMP DP RH WIND PRES REMARKS AHOSKIE N/A 73 51 45 SW6 30.22F CLINTON MOSUNNY 74 52 45 S6 30.24F ELIZABETHTOWN CLOUDY 75 52 44 S9 30.24F GOLDSBORO PTSUNNY 76 48 37 SW14 30.23S GREENVILLE PTSUNNY 75 50 41 SW9G16 30.24F HAVELOCK SUNNY 73 50 44 S20G28 30.28F KENANSVILLE CLOUDY 73 50 43 SW9 30.25F KINSTON PTSUNNY 75 50 41 SW14G21 30.25F NEW BERN MOSUNNY 76 51 41 S14 30.26F RICHLANDS CLOUDY 72 52 49 S12 30.26F ROCKY MOUNT MOSUNNY 75 51 43 SW12 30.22F WASHINGTON PTSUNNY 75 52 43 SW14G20 30.24F WHITEVILLE PTSUNNY 73 50 44 S9G17 30.25F $$ AMZ130-135-150-152-154-156-158-170-250-252-270-ANZ085-086-088-633-658-670-252100- MARINE OBSERVATIONS STATION/POSITION TIME TEMP WIND PRES WAVE SWELL AIR SEA DIR/SP/G HT/PER HT/PER (UTC) (F) (DEG/KT/KT) (MB) (FT/S) (FT/S) CHESAPEAKE LIGHT NOT AVBL 64 E VA BEACH 1950 54 49 210/ 14/ 16 1023.7 3/ 5 2/10 DUCK 1942 70 47 220/ 10/ 11 1023.5 2 E DUCK 2000 50 N/A 1/10 OREGON INLET 1942 61 56 190/ 15/ 18 1024.6 13E OREGON INLT 1948 50 N/A 2/11 2/11 HATTERAS CG 1942 68 57 220/ 9/ 14 1025.3 DIAMOND BUOY 1950 71 77 230/ 16/ 17 1025.4 3/ 5 2/ 7 CAPE LOOKOUT 2000 69 240/ 6/ 8 1025.5 BEAUFORT LAB 1942 68 54 200/ 10/ 12 1024.9 30 SE NEW RVR IN 1908 68 230/ 4/ 8 1026.4 30 SE NEW RVR IN 1943 66 N/A 3/ 7 27 SE WRIGHTSVLE 1908 67 62 190/ 6/ 8 1025.7 5 SE WRIGHTSVLE 1908 62 58 180/ 6/ 8 1026.1 225 S CAPE HAT 1950 66 73 90/ 12/ 14 1026.7 5/ 7 5/ 7 41 SE CHARLESTON 1950 70 72 140/ 14/ 17 1024.6 4/ 8 3/ 8 $$

USA.gov is the U.S. government's official web portal to all federal, state and local government web resources and services.